STAR ONE D1

Last updated on Sun Jun 21 2026 00:03:07 GMT+0000 (Coordinated Universal Time)

1 41904U 16082B 26171.37534374 .00000000 00000+0 00000+0 0 9996 2 41904 0.0424 55.6663 0002639 60.2000 203.8669 1.00266641 34804
UTC large
Height (km)
Speed (km/s)
/
Latitude / Longitude
Inclination (degrees)
Orbital Period (minutes)
Azimuth
Elevation
Range (km)
Doppler Factor

Next 0 passes for location: London (51.5072 / 0.1276)

No passes found over London.
STAR ONE D1